Location: Woodhurst
(52.3667°N, 0.0667°W)
Time: 21:02:45
(UTC+00:00)

Resurs 01 Rocket - Pass Details

Date: 19 May 2025
Orbit: 628 x 637 km, 97.7° (Epoch: 21 June)

Event Time Altitude Azimuth Distance (km) Brightness Sun altitude
Rises 20:49:48 0° 219° (SW) 2,917 4.9 -7.1°
Reaches altitude 10° 20:53:16 10° 249° (WSW) 2,014 4.5 -7.4°
Maximum altitude 20:55:10 13° 274° (W) 1,849 4.7 -7.6°
Drops below altitude 10° 20:57:05 10° 300° (WNW) 2,019 5.6 -7.8°
Sets 21:00:35 0° 330° (NNW) 2,932 7.1 -8.2°
